Simultaneous Nadir Overpasses (SNOs) Predictions

Prediction of SNOs between METOP-B and NOAA-19 Satellite Orbit:

Table of predicted SNOs for the next 14.0 days since TLE Epoch: 2/27/2015
Index Date (METOP-B) Time (METOP-B) Lat,Lon (METOP-B) SZA (METOP-B ) Date (NOAA-19) Time (NOAA-19) Lat,Lon (NOAA-19) SZA (NOAA-19 ) Distance(km) Time Diff (sec)
1 03/09/2015 12:15:45 -74.96, 173.60 100.56 03/09/2015 12:14:34 -74.94, 171.95 100.52 47.58 71
2 03/09/2015 13:06:32 74.62, -20.01 79.12 03/09/2015 13:05:31 74.64, -19.93 79.14 3.02 61
3 03/09/2015 13:57:14 -74.61, 147.28 100.91 03/09/2015 13:56:30 -74.62, 147.38 100.90 2.85 44
4 03/09/2015 14:47:54 74.60, -45.40 79.07 03/09/2015 14:47:33 74.60, -45.32 79.07 2.43 21
5 03/09/2015 15:38:36 -74.59, 121.90 100.96 03/09/2015 15:38:33 -74.62, 121.85 100.93 3.29 3
6
